Tracking 18987 objects as of 25-Feb-2018
HD Live streaming from Space Station
objects crossing your sky now

FENGYUN 1C DEB

Track FENGYUN 1C DEB now!
10-day predictions


NORAD ID: 37471
Int'l Code: 1999-025EJR
Perigee: 532.0 km
Apogee: 805.0 km
Inclination: 98.7 °
Period: 98.0 minutes
Semi major axis: 7039 km
RCS: 0.0071 m2 (small)
Launch date: May 10, 1999
Source: People's Republic of China (PRC)
Launch site: Taiyaun Space Center, China (TSC)

Note: This is SATELLITE DEBRIS
aabbcc
Your satellite tracking list
Your tracking list is empty




NASA's NSSDC Master Catalog

Two Line Element Set (TLE):
1 37471U 99025EJR 18050.40502452 +.00001059 +00000-0 +14183-3 0  9998
2 37471 098.7290 278.4141 0193894 276.9636 080.9549 14.69906222410011
Source of the keplerian elements: AFSPC